TimeCST,TemperatureF,Dew PointF,Humidity,Sea Level PressureIn,VisibilityMPH,Wind Direction,Wind SpeedMPH,Gust SpeedMPH,PrecipitationIn,Events,Conditions,WindDirDegrees,DateUTC
12:54 AM,41.0,30.0,65,30.19,10.0,South,6.9,-,N/A,,Clear,180,2012-11-04 05:54:00
1:54 AM,37.0,28.9,73,30.19,10.0,South,6.9,-,N/A,,Clear,190,2012-11-04 06:54:00
1:54 AM,35.1,28.9,78,30.18,10.0,SSW,8.1,-,N/A,,Clear,210,2012-11-04 07:54:00
2:54 AM,35.1,28.9,78,30.17,10.0,SW,8.1,-,N/A,,Clear,230,2012-11-04 08:54:00
3:54 AM,35.1,28.9,78,30.17,10.0,SW,8.1,-,N/A,,Clear,230,2012-11-04 09:54:00
4:54 AM,34.0,28.9,82,30.17,10.0,WSW,8.1,-,N/A,,Clear,240,2012-11-04 10:54:00
5:54 AM,33.1,28.0,82,30.19,10.0,SW,6.9,-,N/A,,Clear,230,2012-11-04 11:54:00
6:54 AM,33.1,28.0,82,30.19,10.0,SW,6.9,-,N/A,,Clear,230,2012-11-04 12:54:00
7:54 AM,35.1,30.0,82,30.20,10.0,South,4.6,-,N/A,,Clear,190,2012-11-04 13:54:00
8:54 AM,42.1,32.0,67,30.18,10.0,SSW,8.1,-,N/A,,Clear,200,2012-11-04 14:54:00
9:54 AM,51.1,34.0,52,30.15,10.0,SW,13.8,-,N/A,,Clear,230,2012-11-04 15:54:00
10:54 AM,55.9,35.1,45,30.14,10.0,SW,13.8,-,N/A,,Clear,220,2012-11-04 16:54:00
11:54 AM,61.0,34.0,36,30.11,10.0,SW,10.4,-,N/A,,Clear,220,2012-11-04 17:54:00
12:54 PM,64.0,32.0,30,30.07,10.0,WSW,10.4,-,N/A,,Clear,240,2012-11-04 18:54:00
1:54 PM,66.0,32.0,28,30.05,10.0,SSW,5.8,-,N/A,,Clear,210,2012-11-04 19:54:00
2:54 PM,69.1,30.9,24,30.03,10.0,WSW,9.2,-,N/A,,Clear,250,2012-11-04 20:54:00
3:54 PM,69.1,30.9,24,30.02,10.0,SW,5.8,-,N/A,,Clear,230,2012-11-04 21:54:00
4:54 PM,68.0,30.9,25,30.03,10.0,SSW,5.8,-,N/A,,Clear,200,2012-11-04 22:54:00
5:54 PM,57.9,32.0,37,30.06,10.0,NE,4.6,-,N/A,,Clear,40,2012-11-04 23:54:00
6:54 PM,54.0,32.0,43,30.09,10.0,Calm,Calm,-,N/A,,Clear,0,2012-11-05 00:54:00
7:54 PM,53.1,30.9,43,30.12,10.0,North,8.1,-,N/A,,Partly Cloudy,360,2012-11-05 01:54:00
8:54 PM,55.9,27.0,33,30.12,10.0,NNE,11.5,-,N/A,,Overcast,20,2012-11-05 02:54:00
9:54 PM,55.0,26.1,33,30.13,10.0,NNE,9.2,-,N/A,,Clear,30,2012-11-05 03:54:00
10:54 PM,51.1,27.0,39,30.15,10.0,North,10.4,-,N/A,,Partly Cloudy,350,2012-11-05 04:54:00